Flag for United Kingdom Weather past 2 weeks in Cheltenham, England, United Kingdom

Now
58 °F

Cool.


Feels Like: 55 °F
Forecast: 54 / 73 °F
Wind: 13 mph from North

Location: Little Rissington

Current Time: Jul 30, 2014 at 2:10:21 AM

Latest Report: Jul 30, 2014 at 1:00 AM


Visibility: 16 mi

Pressure: 30.02 "Hg

Humidity: 76%

Dew point: 50 °F

Location of CheltenhamLocation

Historic Weather in Cheltenham — Graph

°F

Cheltenham temperature yesterday

Maximum temperature yesterday: 73 °F (at 3:00 PM)
Minimum temperature yesterday: 54 °F (at 5:00 AM)
Average temperature yesterday: 64 °F

Past Weeks' High & Low Weather Summary

 TemperatureHumidityPressure
High80 °F (Jul 24, 6:00 PM)100% (Jul 15, 12:00 AM)30.22 "Hg (Jul 15, 12:00 AM)
Low53 °F (Jul 16, 4:00 AM)41% (Jul 26, 3:00 PM)29.71 "Hg (Jul 19, 5:00 PM)
Average66 °F75%30.02 "Hg
* Reported Midnight between Jul 14 and Jul 15 — Midnight between Jul 29 and Jul 30, Cheltenham, Weather by CustomWeather, © 2014

Note: Actual official high and low records may vary slightly from our data, if they occured in-between our weather recording intervals... More about our weather records

Advertising

Cheltenham weather history for previous 24 hours

 ConditionsComfort  
Time TempWeatherWind HumidityBarometerVisibility
12:00 AM
Jul 30
58 °FCool.13 mph74%30.02 "Hg16 mi
11:00 PM
Jul 29
60 °FCool.14 mph72%30.03 "Hg17 mi
10:00 PM63 °FMild.15 mph78%30.01 "Hg17 mi
9:00 PM66 °FMild.9 mph71%29.99 "Hg17 mi
8:00 PM67 °FMild.13 mph67%29.98 "Hg17 mi
7:00 PM68 °FMild.15 mph65%29.98 "Hg16 mi
6:00 PM70 °FMild.14 mph60%29.97 "Hg17 mi
5:00 PM71 °FMild.12 mph58%29.97 "Hg17 mi
4:00 PM73 °FMild.13 mph51%29.98 "Hg19 mi
3:00 PM73 °FMild.12 mph53%29.98 "Hg19 mi
2:00 PM71 °FMild.12 mph52%30.00 "Hg18 mi
1:00 PM71 °FMild.12 mph55%30.01 "Hg18 mi
12:00 PM71 °FMild.9 mph59%30.01 "Hg18 mi
11:00 AM67 °FMild.8 mph61%30.03 "Hg18 mi
10:00 AM65 °FMild.9 mph67%30.04 "Hg16 mi
9:00 AM61 °FCool.9 mph92%30.05 "Hg6 mi
8:00 AM57 °FCool.10 mph98%30.04 "Hg2 mi
7:00 AM56 °FCool.9 mph96%30.04 "Hg2 mi
5:00 AM54 °FCool.10 mph96%30.05 "Hg3 mi
4:00 AM55 °FCool.7 mph95%30.05 "Hg5 mi
2:00 AM55 °FCool.8 mph89%30.06 "Hg9 mi
Weather by CustomWeather, © 2014

See weather overviewHow to use our weather pages